| time (UTC) | temp F | wind direction | speed MPH | gust MPH | rain 1hr in | rain 24hr in | rain mn in | humidity % | barometer mb |
| 20260506090703 | 56 | 270 | 0.0 | 0.0 | 0.12 | 0.28 | 0.27 | 99 | 1003.0 |
| 20260506090203 | 56 | 293 | 0.0 | 0.0 | 0.13 | 0.28 | 0.27 | 99 | 1002.9 |
| 20260506085704 | 56 | 293 | 0.0 | 0.0 | 0.13 | 0.28 | 0.27 | 99 | 1002.9 |
| 20260506085204 | 56 | 293 | 0.0 | 0.0 | 0.13 | 0.27 | 0.26 | 99 | 1003.0 |
| 20260506084704 | 56 | 276 | 0.0 | 0.0 | 0.13 | 0.26 | 0.25 | 99 | 1003.1 |
| 20260506084204 | 56 | 189 | 0.0 | 0.0 | 0.11 | 0.24 | 0.23 | 98 | 1003.3 |
| 20260506083204 | 56 | 203 | 0.0 | 0.0 | 0.11 | 0.23 | 0.22 | 98 | 1003.2 |
| 20260506082704 | 56 | 203 | 0.0 | 0.0 | 0.10 | 0.21 | 0.20 | 98 | 1003.3 |
| 20260506082203 | 56 | 203 | 0.0 | 0.0 | 0.09 | 0.20 | 0.19 | 98 | 1003.3 |
| 20260506081704 | 56 | 203 | 0.0 | 0.0 | 0.07 | 0.18 | 0.17 | 98 | 1003.3 |
| 20260506080703 | 56 | 203 | 0.0 | 0.0 | 0.05 | 0.16 | 0.15 | 98 | 1003.2 |
| 20260506080204 | 56 | 203 | 0.0 | 0.0 | 0.04 | 0.15 | 0.14 | 98 | 1003.2 |
| 20260506073204 | 56 | 203 | 0.0 | 0.0 | 0.01 | 0.12 | 0.11 | 98 | 1003.2 |
| 20260506072703 | 57 | 203 | 0.0 | 0.0 | 0.00 | 0.11 | 0.10 | 98 | 1003.2 |
| 20260506072204 | 57 | 203 | 0.0 | 0.0 | 0.00 | 0.11 | 0.10 | 98 | 1003.2 |
| 20260506071704 | 57 | 203 | 0.0 | 0.0 | 0.00 | 0.11 | 0.10 | 98 | 1003.1 |
| 20260506071203 | 57 | 198 | 0.0 | 0.0 | 0.00 | 0.11 | 0.10 | 98 | 1003.1 |
| 20260506070704 | 57 | 198 | 0.0 | 0.0 | 0.00 | 0.11 | 0.10 | 98 | 1003.0 |
| 20260506070204 | 57 | 198 | 0.0 | 0.0 | 0.00 | 0.11 | 0.10 | 98 | 1003.2 |
| 20260506062204 | 57 | 278 | 0.0 | 0.0 | 0.03 | 0.11 | 0.10 | 98 | 1003.7 |
| 20260506061703 | 57 | 205 | 0.0 | 0.0 | 0.03 | 0.11 | 0.10 | 98 | 1003.7 |
| 20260506061204 | 57 | 243 | 0.0 | 0.0 | 0.03 | 0.11 | 0.10 | 98 | 1003.9 |
| 20260506060704 | 57 | 229 | 0.0 | 0.0 | 0.04 | 0.11 | 0.10 | 98 | 1003.8 |
| 20260506060203 | 58 | 191 | 0.0 | 0.0 | 0.04 | 0.11 | 0.10 | 98 | 1004.0 |
| 20260506050703 | 58 | 236 | 0.0 | 0.0 | 0.05 | 0.07 | 0.06 | 98 | 1004.9 |
| 20260506050204 | 58 | 235 | 0.0 | 0.0 | 0.06 | 0.07 | 0.06 | 98 | 1005.0 |
| 20260506044703 | 58 | 235 | 0.0 | 0.0 | 0.05 | 0.06 | 0.05 | 98 | 1005.2 |
| 20260506044204 | 58 | 235 | 0.0 | 0.0 | 0.05 | 0.06 | 0.05 | 98 | 1005.2 |
| 20260506043704 | 58 | 236 | 0.0 | 0.0 | 0.04 | 0.05 | 0.04 | 97 | 1005.3 |
| 20260506043204 | 58 | 236 | 0.0 | 0.0 | 0.04 | 0.05 | 0.04 | 97 | 1005.4 |
| 20260506042704 | 58 | 236 | 0.0 | 0.0 | 0.04 | 0.05 | 0.04 | 97 | 1005.4 |
| 20260506042203 | 58 | 236 | 0.0 | 0.0 | 0.03 | 0.04 | 0.03 | 97 | 1005.5 |
| 20260506041704 | 58 | 236 | 0.0 | 0.0 | 0.02 | 0.03 | 0.02 | 97 | 1005.5 |
| 20260506040203 | 58 | 236 | 0.0 | 0.0 | 0.00 | 0.01 | 0.00 | 97 | 1005.4 |
| 20260506035203 | 58 | 236 | 0.0 | 0.0 | 0.01 | 0.01 | 0.01 | 96 | 1005.3 |
| 20260506034204 | 58 | 236 | 0.0 | 0.0 | 0.00 | 0.00 | 0.00 | 96 | 1005.2 |
| 20260506033704 | 58 | 236 | 0.0 | 0.0 | 0.00 | 0.00 | 0.00 | 96 | 1005.3 |
| 20260506033205 | 58 | 236 | 0.0 | 0.0 | 0.00 | 0.00 | 0.00 | 96 | 1005.3 |
| 20260506032704 | 58 | 236 | 0.0 | 0.0 | 0.00 | 0.00 | 0.00 | 96 | 1005.4 |
| 20260506032203 | 58 | 236 | 0.0 | 0.0 | 0.00 | 0.00 | 0.00 | 96 | 1005.4 |
| 20260506031704 | 58 | 236 | 0.0 | 0.0 | 0.00 | 0.00 | 0.00 | 96 | 1005.4 |
| 20260506030703 | 58 | 109 | 0.0 | 0.0 | 0.00 | 0.00 | 0.00 | 95 | 1005.5 |
| 20260506030203 | 58 | 108 | 0.0 | 0.0 | 0.00 | 0.00 | 0.00 | 95 | 1005.4 |
| 20260506025704 | 58 | 108 | 0.0 | 0.0 | 0.00 | 0.00 | 0.00 | 95 | 1005.4 |
| 20260506025204 | 58 | 282 | 0.0 | 0.0 | 0.00 | 0.00 | 0.00 | 95 | 1005.3 |
| 20260506024204 | 59 | 291 | 0.0 | 0.0 | 0.00 | 0.00 | 0.00 | 94 | 1005.5 |
| 20260506022203 | 59 | 291 | 0.0 | 0.0 | 0.00 | 0.00 | 0.00 | 93 | 1005.2 |
| 20260506021703 | 59 | 291 | 0.0 | 0.0 | 0.00 | 0.00 | 0.00 | 92 | 1005.1 |
| 20260506021204 | 59 | 291 | 0.0 | 0.0 | 0.00 | 0.00 | 0.00 | 92 | 1005.4 |
| 20260506020704 | 60 | 290 | 0.0 | 0.0 | 0.00 | 0.00 | 0.00 | 91 | 1005.5 |
| 20260506020204 | 60 | 249 | 0.0 | 0.0 | 0.00 | 0.00 | 0.00 | 90 | 1005.5 |
| 20260506015703 | 60 | 252 | 0.0 | 0.0 | 0.00 | 0.00 | 0.00 | 89 | 1005.4 |
| 20260506013704 | 61 | 171 | 0.0 | 0.0 | 0.00 | 0.00 | 0.00 | 84 | 1005.6 |
| 20260506013204 | 61 | 208 | 0.0 | 0.0 | 0.00 | 0.00 | 0.00 | 83 | 1005.6 |
| 20260506012203 | 62 | 229 | 0.0 | 0.0 | 0.00 | 0.00 | 0.00 | 81 | 1005.1 |
| 20260506011704 | 62 | 229 | 0.0 | 0.0 | 0.00 | 0.00 | 0.00 | 80 | 1005.0 |
| 20260506011204 | 63 | 229 | 0.0 | 0.0 | 0.00 | 0.00 | 0.00 | 79 | 1005.1 |
| 20260506010704 | 63 | 229 | 0.0 | 0.0 | 0.00 | 0.00 | 0.00 | 77 | 1004.9 |
| 20260506010204 | 64 | 246 | 0.0 | 0.0 | 0.00 | 0.00 | 0.00 | 75 | 1005.0 |
| 20260506005704 | 65 | 257 | 0.0 | 0.0 | 0.00 | 0.00 | 0.00 | 71 | 1005.0 |
| 20260506005204 | 67 | 247 | 0.0 | 1.0 | 0.00 | 0.00 | 0.00 | 67 | 1005.0 |
| 20260506004704 | 68 | 326 | 0.0 | 0.0 | 0.00 | 0.00 | 0.00 | 61 | 1004.9 |
| 20260506004203 | 68 | 295 | 0.0 | 2.0 | 0.00 | 0.00 | 0.00 | 59 | 1004.5 |
| 20260506003703 | 68 | 218 | 0.0 | 0.0 | 0.00 | 0.00 | 0.00 | 60 | 1004.4 |
| 20260506003203 | 68 | 204 | 0.0 | 0.0 | 0.00 | 0.00 | 0.00 | 60 | 1004.4 |
| 20260506002704 | 68 | 272 | 0.0 | 0.0 | 0.00 | 0.00 | 0.00 | 60 | 1004.4 |
| 20260506002204 | 68 | 247 | 0.0 | 0.0 | 0.00 | 0.00 | 0.00 | 59 | 1004.3 |
| 20260506001704 | 68 | 218 | 0.0 | 0.0 | 0.00 | 0.00 | 0.00 | 60 | 1004.3 |
| 20260506001203 | 68 | 257 | 0.0 | 0.0 | 0.00 | 0.00 | 0.00 | 59 | 1004.2 |
| 20260506000204 | 69 | 261 | 0.0 | 1.0 | 0.00 | 0.00 | 0.00 | 60 | 1004.4 |
| 20260505235704 | 69 | 201 | 0.0 | 0.0 | 0.00 | 0.00 | 0.00 | 60 | 1004.3 |
| 20260505235204 | 69 | 269 | 0.0 | 0.0 | 0.00 | 0.00 | 0.00 | 60 | 1004.4 |
| 20260505234704 | 69 | 215 | 0.0 | 0.0 | 0.00 | 0.00 | 0.00 | 59 | 1004.4 |
| 20260505234204 | 69 | 209 | 0.0 | 0.0 | 0.00 | 0.00 | 0.00 | 59 | 1004.4 |
| 20260505233704 | 69 | 306 | 0.0 | 0.0 | 0.00 | 0.00 | 0.00 | 59 | 1004.4 |
| 20260505233203 | 69 | 130 | 0.0 | 0.0 | 0.00 | 0.00 | 0.00 | 60 | 1004.5 |
| 20260505232703 | 69 | 237 | 0.0 | 0.0 | 0.00 | 0.00 | 0.00 | 60 | 1004.4 |
| 20260505232203 | 69 | 224 | 0.0 | 0.0 | 0.00 | 0.00 | 0.00 | 60 | 1004.4 |
| 20260505231703 | 69 | 217 | 0.0 | 0.0 | 0.00 | 0.00 | 0.00 | 60 | 1004.4 |
| 20260505231203 | 69 | 201 | 0.0 | 0.0 | 0.00 | 0.00 | 0.00 | 61 | 1004.3 |
| 20260505230204 | 69 | 195 | 0.0 | 0.0 | 0.00 | 0.00 | 0.00 | 60 | 1004.3 |
| 20260505225704 | 69 | 289 | 0.0 | 0.0 | 0.00 | 0.00 | 0.00 | 60 | 1004.4 |
| 20260505225204 | 69 | 208 | 0.0 | 0.0 | 0.00 | 0.00 | 0.00 | 60 | 1004.4 |
| 20260505224703 | 70 | 234 | 0.0 | 0.0 | 0.00 | 0.00 | 0.00 | 59 | 1004.6 |
| 20260505224203 | 70 | 224 | 0.0 | 0.0 | 0.00 | 0.00 | 0.00 | 59 | 1004.5 |
| 20260505223703 | 70 | 205 | 0.0 | 0.0 | 0.00 | 0.00 | 0.00 | 59 | 1004.6 |
| 20260505222704 | 70 | 221 | 0.0 | 0.0 | 0.00 | 0.00 | 0.00 | 59 | 1004.7 |
| 20260505222204 | 70 | 233 | 0.0 | 0.0 | 0.00 | 0.00 | 0.00 | 58 | 1004.7 |
| 20260505221703 | 70 | 185 | 0.0 | 0.0 | 0.00 | 0.00 | 0.00 | 59 | 1004.7 |
| 20260505221203 | 70 | 231 | 0.0 | 2.0 | 0.00 | 0.00 | 0.00 | 58 | 1004.7 |
| 20260505220703 | 70 | 223 | 0.0 | 0.0 | 0.00 | 0.00 | 0.00 | 58 | 1004.7 |
| 20260505220203 | 70 | 291 | 0.0 | 3.0 | 0.00 | 0.00 | 0.00 | 57 | 1004.7 |
| 20260505215704 | 70 | 220 | 0.0 | 2.0 | 0.00 | 0.00 | 0.00 | 58 | 1004.6 |
| 20260505215204 | 70 | 256 | 0.0 | 0.0 | 0.00 | 0.00 | 0.00 | 58 | 1004.6 |
| 20260505214704 | 70 | 274 | 0.0 | 3.0 | 0.00 | 0.00 | 0.00 | 57 | 1004.7 |
| 20260505213704 | 70 | 276 | 0.0 | 3.0 | 0.00 | 0.00 | 0.00 | 56 | 1004.9 |
| 20260505213204 | 70 | 252 | 0.0 | 8.0 | 0.00 | 0.00 | 0.00 | 56 | 1004.8 |
| 20260505212204 | 71 | 269 | 0.0 | 2.0 | 0.00 | 0.00 | 0.00 | 56 | 1004.8 |
| 20260505211705 | 71 | 200 | 1.0 | 6.0 | 0.00 | 0.00 | 0.00 | 57 | 1004.7 |
| 20260505211203 | 71 | 224 | 0.0 | 2.0 | 0.00 | 0.00 | 0.00 | 58 | 1004.7 |
| 20260505210204 | 71 | 249 | 0.0 | 1.0 | 0.00 | 0.00 | 0.00 | 58 | 1004.7 |
| 20260505205704 | 71 | 200 | 1.0 | 6.0 | 0.00 | 0.00 | 0.00 | 58 | 1004.7 |
| 20260505205203 | 71 | 192 | 1.0 | 6.0 | 0.00 | 0.00 | 0.00 | 58 | 1004.7 |
| 20260505204703 | 71 | 203 | 0.0 | 6.0 | 0.00 | 0.00 | 0.00 | 59 | 1004.7 |
| 20260505204204 | 71 | 215 | 0.0 | 3.0 | 0.00 | 0.00 | 0.00 | 58 | 1004.7 |
| 20260505203704 | 71 | 312 | 0.0 | 8.0 | 0.00 | 0.00 | 0.00 | 58 | 1004.7 |
| 20260505203204 | 71 | 208 | 0.0 | 3.0 | 0.00 | 0.00 | 0.00 | 58 | 1004.6 |
| 20260505202704 | 71 | 275 | 0.0 | 2.0 | 0.00 | 0.00 | 0.00 | 58 | 1004.5 |
| 20260505202204 | 71 | 203 | 0.0 | 2.0 | 0.00 | 0.00 | 0.00 | 59 | 1004.5 |
| 20260505201703 | 71 | 280 | 0.0 | 3.0 | 0.00 | 0.00 | 0.00 | 59 | 1004.6 |
| 20260505200703 | 71 | 204 | 0.0 | 1.0 | 0.00 | 0.00 | 0.00 | 58 | 1004.8 |
| 20260505195703 | 71 | 240 | 0.0 | 1.0 | 0.00 | 0.00 | 0.00 | 58 | 1004.9 |
| 20260505195203 | 71 | 208 | 0.0 | 0.0 | 0.00 | 0.00 | 0.00 | 59 | 1004.9 |
| 20260505194704 | 71 | 214 | 0.0 | 0.0 | 0.00 | 0.00 | 0.00 | 58 | 1004.9 |
| 20260505193704 | 70 | 274 | 0.0 | 0.0 | 0.00 | 0.00 | 0.00 | 60 | 1005.1 |
| 20260505193203 | 70 | 254 | 0.0 | 0.0 | 0.00 | 0.00 | 0.00 | 60 | 1005.2 |
| 20260505192705 | 70 | 267 | 0.0 | 0.0 | 0.00 | 0.00 | 0.00 | 60 | 1005.3 |
| 20260505191703 | 69 | 273 | 0.0 | 0.0 | 0.00 | 0.00 | 0.00 | 60 | 1005.5 |
| 20260505191204 | 69 | 243 | 0.0 | 0.0 | 0.00 | 0.00 | 0.00 | 61 | 1005.5 |
| 20260505190703 | 69 | 210 | 0.0 | 0.0 | 0.00 | 0.00 | 0.00 | 59 | 1005.5 |
| 20260505190204 | 70 | 279 | 0.0 | 0.0 | 0.00 | 0.00 | 0.00 | 59 | 1005.6 |
| 20260505184204 | 70 | 254 | 0.0 | 2.0 | 0.00 | 0.00 | 0.00 | 58 | 1005.6 |
| 20260505183704 | 70 | 254 | 0.0 | 3.0 | 0.00 | 0.00 | 0.00 | 58 | 1005.6 |
| 20260505183203 | 70 | 233 | 0.0 | 0.0 | 0.00 | 0.00 | 0.00 | 58 | 1005.6 |
| 20260505182704 | 71 | 303 | 0.0 | 1.0 | 0.00 | 0.00 | 0.00 | 57 | 1005.6 |
| 20260505181204 | 71 | 275 | 1.0 | 6.0 | 0.00 | 0.00 | 0.00 | 54 | 1005.6 |
| 20260505180704 | 72 | 266 | 1.0 | 7.0 | 0.00 | 0.00 | 0.00 | 54 | 1005.5 |
| 20260505180204 | 72 | 238 | 0.0 | 6.0 | 0.00 | 0.00 | 0.00 | 54 | 1005.6 |
| 20260505175703 | 72 | 300 | 1.0 | 7.0 | 0.00 | 0.00 | 0.00 | 53 | 1005.5 |
| 20260505175203 | 72 | 228 | 0.0 | 3.0 | 0.00 | 0.00 | 0.00 | 52 | 1005.5 |
| 20260505174203 | 73 | 293 | 1.0 | 8.0 | 0.00 | 0.00 | 0.00 | 53 | 1005.6 |
| 20260505173704 | 73 | 286 | 0.0 | 3.0 | 0.00 | 0.00 | 0.00 | 53 | 1005.5 |
| 20260505173204 | 72 | 206 | 1.0 | 3.0 | 0.00 | 0.00 | 0.00 | 54 | 1005.5 |
| 20260505172704 | 71 | 210 | 0.0 | 3.0 | 0.00 | 0.00 | 0.00 | 58 | 1005.6 |
| 20260505171704 | 70 | 228 | 0.0 | 3.0 | 0.00 | 0.00 | 0.00 | 56 | 1005.7 |
| 20260505171203 | 70 | 286 | 1.0 | 6.0 | 0.00 | 0.00 | 0.00 | 56 | 1005.7 |
| 20260505170203 | 71 | 286 | 0.0 | 2.0 | 0.00 | 0.00 | 0.00 | 56 | 1005.4 |
| 20260505165704 | 71 | 302 | 0.0 | 3.0 | 0.00 | 0.00 | 0.00 | 54 | 1005.3 |
| 20260505165203 | 73 | 285 | 2.0 | 12.0 | 0.00 | 0.00 | 0.00 | 52 | 1005.3 |
| 20260505164703 | 74 | 298 | 0.0 | 3.0 | 0.00 | 0.00 | 0.00 | 52 | 1005.1 |
| 20260505164204 | 74 | 295 | 0.0 | 3.0 | 0.00 | 0.00 | 0.00 | 51 | 1005.0 |
| 20260505163204 | 75 | 294 | 0.0 | 3.0 | 0.00 | 0.00 | 0.00 | 51 | 1004.9 |
| 20260505162703 | 75 | 192 | 2.0 | 8.0 | 0.00 | 0.00 | 0.00 | 49 | 1004.8 |
| 20260505162204 | 75 | 215 | 0.0 | 7.0 | 0.00 | 0.00 | 0.00 | 53 | 1004.8 |
| 20260505161704 | 74 | 274 | 0.0 | 0.0 | 0.00 | 0.00 | 0.00 | 52 | 1004.9 |
| 20260505161204 | 73 | 250 | 0.0 | 6.0 | 0.00 | 0.00 | 0.00 | 53 | 1004.9 |
| 20260505160704 | 73 | 208 | 1.0 | 5.0 | 0.00 | 0.00 | 0.00 | 54 | 1005.1 |
| 20260505160204 | 72 | 262 | 0.0 | 3.0 | 0.00 | 0.00 | 0.00 | 55 | 1005.2 |
| 20260505153204 | 70 | 279 | 1.0 | 6.0 | 0.00 | 0.00 | 0.00 | 58 | 1005.5 |
| 20260505152704 | 70 | 286 | 0.0 | 2.0 | 0.00 | 0.00 | 0.00 | 57 | 1005.5 |
| 20260505152203 | 71 | 277 | 0.0 | 1.0 | 0.00 | 0.00 | 0.00 | 58 | 1005.4 |
| 20260505151703 | 70 | 265 | 0.0 | 1.0 | 0.00 | 0.00 | 0.00 | 62 | 1005.5 |
| 20260505150703 | 69 | 308 | 0.0 | 6.0 | 0.00 | 0.00 | 0.00 | 62 | 1005.5 |
| 20260505150204 | 68 | 178 | 0.0 | 3.0 | 0.00 | 0.00 | 0.00 | 63 | 1005.4 |
| 20260505140203 | 66 | 239 | 0.0 | 1.0 | 0.00 | 0.00 | 0.00 | 63 | 1005.3 |
| 20260505124705 | 67 | 255 | 1.0 | 3.0 | 0.00 | 0.00 | 0.00 | 64 | 1005.3 |
| 20260505124204 | 67 | 315 | 0.0 | 5.0 | 0.00 | 0.00 | 0.00 | 62 | 1005.3 |
| 20260505123704 | 67 | 159 | 0.0 | 3.0 | 0.00 | 0.00 | 0.00 | 64 | 1005.3 |
| 20260505123204 | 67 | 199 | 0.0 | 1.0 | 0.00 | 0.00 | 0.00 | 65 | 1005.3 |
| 20260505122704 | 66 | 276 | 0.0 | 1.0 | 0.00 | 0.00 | 0.00 | 66 | 1005.4 |
| 20260505121704 | 66 | 231 | 0.0 | 0.0 | 0.00 | 0.00 | 0.00 | 66 | 1005.4 |
| 20260505121204 | 65 | 234 | 0.0 | 2.0 | 0.00 | 0.00 | 0.00 | 66 | 1005.3 |
| 20260505115704 | 64 | 240 | 0.0 | 0.0 | 0.00 | 0.00 | 0.00 | 69 | 1005.5 |
| 20260505115204 | 63 | 241 | 0.0 | 0.0 | 0.00 | 0.00 | 0.00 | 70 | 1005.4 |
| 20260505114703 | 63 | 220 | 0.0 | 2.0 | 0.00 | 0.00 | 0.00 | 70 | 1005.3 |
| 20260505114204 | 63 | 226 | 0.0 | 0.0 | 0.00 | 0.00 | 0.00 | 70 | 1005.4 |
| 20260505113703 | 63 | 229 | 0.0 | 0.0 | 0.00 | 0.00 | 0.00 | 70 | 1005.3 |
| 20260505113203 | 63 | 228 | 0.0 | 0.0 | 0.00 | 0.00 | 0.00 | 69 | 1005.4 |
| 20260505112704 | 63 | 244 | 0.0 | 1.0 | 0.00 | 0.00 | 0.00 | 69 | 1005.2 |
| 20260505111704 | 63 | 290 | 0.0 | 3.0 | 0.00 | 0.00 | 0.00 | 70 | 1005.3 |
| 20260505111204 | 62 | 216 | 0.0 | 3.0 | 0.00 | 0.00 | 0.00 | 71 | 1005.3 |
| 20260505102204 | 60 | 284 | 0.0 | 0.0 | 0.00 | 0.00 | 0.00 | 74 | 1004.8 |
| 20260505101704 | 60 | 230 | 0.0 | 0.0 | 0.00 | 0.00 | 0.00 | 74 | 1004.6 |
| 20260505100203 | 61 | 227 | 0.0 | 2.0 | 0.00 | 0.00 | 0.00 | 74 | 1004.6 |
| 20260505095704 | 61 | 231 | 0.0 | 0.0 | 0.00 | 0.00 | 0.00 | 73 | 1004.5 |
| 20260505095204 | 61 | 250 | 0.0 | 0.0 | 0.00 | 0.00 | 0.00 | 73 | 1004.5 |
| 20260505094703 | 61 | 210 | 0.0 | 0.0 | 0.00 | 0.00 | 0.00 | 73 | 1004.4 |
| 20260505094203 | 61 | 213 | 0.0 | 0.0 | 0.00 | 0.00 | 0.00 | 73 | 1004.4 |
| 20260505093203 | 62 | 253 | 0.0 | 0.0 | 0.00 | 0.00 | 0.00 | 73 | 1004.2 |
| 20260505092204 | 62 | 307 | 0.0 | 0.0 | 0.00 | 0.00 | 0.00 | 73 | 1004.0 |
| 20260505091704 | 62 | 242 | 0.0 | 0.0 | 0.00 | 0.00 | 0.00 | 73 | 1004.0 |
| 20260505091204 | 61 | 236 | 0.0 | 0.0 | 0.00 | 0.00 | 0.00 | 74 | 1004.0 |